Terminal Aerodrome Forecast
Issued by NWS

Home | Current Version | Previous Version | Text Only | Print | Product List | Glossary On
Versions: 1 2 3 4 5 6 7 8 9 10 11 12 13 14 15 16 17 18 19 20 21 22 23 24 25
000
FTUS41 KBTV 012320
TAFRUT
TAF
KRUT 012320Z 0200/0224 VRB04KT P6SM BKN130 OVC150
     FM020400 10005KT P6SM OVC070
     FM020700 11006KT 1 1/2SM -SN BR OVC035
     FM021100 13012KT 1/2SM SN FG OVC006
     FM022100 01008KT 1SM -SN BR OVC008
      AMD LTD TO CLD VIS AND WIND=

USA.gov is the U.S. government's official web portal to all federal, state and local government web resources and services.